Location: Newark
(33.6439°N, 114.9881°W)
Time: 13:39:14
(UTC+00:00)

A-11 Canister half - Pass Details

Date: 28 August 2019
Orbit: 1527 x 1682 km, 47.3° (Epoch: 22 October)

Event Time Altitude Azimuth Distance (km) Brightness Sun altitude
Rises 01:02:42 0° 305° (NW) 4,934 12.7 13.5°
Reaches altitude 10° 01:05:54 10° 302° (WNW) 3,946 12.4 12.8°
Maximum altitude 01:15:53 64° 224° (SW) 1,814 9.9 10.7°
Drops below altitude 10° 01:25:42 10° 145° (SE) 3,878 10.8 8.7°
Sets 01:28:50 0° 143° (SE) 4,844 11.2 8.0°
